[[{"header":{"parameterUnit":"m.s-1","parameterCategory":1,"la1":30.2992,"la2":30.254,"lo1":-89.0895,"lo2":-89.0443,"dy":0.0025,"dx":0.0025,"nx":19,"ny":19,"refTime":"2026-04-02T21:00:00:Z","depth":0,"parameterNumber":2,"parameterNumberName":"U-component_of_WINDS"},"data":[0,0,0,-4.1224,-4.1227,-4.1388,-4.1388,-4.1593,-4.1595,0,0,0,0,0,0,0,0,0,0,0,-4.1176,-4.1177,-4.1223,-4.1227,-4.1388,-4.1388,-4.1593,-4.1595,0,0,0,0,0,0,0,0,0,0,0,-4.1175,-4.1177,-4.1179,-4.1228,-4.1388,-4.1388,-4.1592,-4.1471,0,0,0,0,0,0,0,0,0,0,-4.1316,-4.1271,-4.1176,-4.1179,-4.1229,-4.1387,-4.1388,-4.1466,-4.1479,-4.1521,0,-4.1557,0,-4.158,-4.1609,-4.161,0,0,0,-4.1227,-4.126,-4.1304,-4.1179,-4.123,-4.1387,-4.1315,-4.1473,-4.1488,-4.1538,-4.156,-4.1568,-4.1583,-4.161,-4.1611,-4.1851,-4.1852,0,0,-4.1219,-4.1204,-4.1293,-4.1314,-4.1289,-4.131,-4.132,-4.1482,-4.1505,-4.1561,-4.1573,-4.1586,-4.1611,-4.1613,-4.185,-4.1851,0,0,0,-4.1193,-4.1198,-4.1238,-4.1305,-4.1334,-4.1315,-4.1327,-4.1498,-4.1512,-4.1575,-4.1589,-4.1613,-4.1615,-4.1849,-4.185,-4.1891,0,0,0,-4.1188,-4.1183,-4.1234,-4.1227,-4.1331,-4.1418,-4.1338,-4.1501,-4.152,-4.1588,-4.1613,-4.1617,-4.1847,-4.185,-4.1887,-4.1911,0,0,0,-4.1165,-4.1181,-4.1204,-4.1226,-4.1294,-4.1416,-4.1439,-4.1505,-4.1528,-4.161,-4.1618,-4.1847,-4.1849,-4.1884,-4.1905,-4.1969,0,0,0,-4.1137,-4.1237,-4.1204,-4.1322,-4.1293,-4.144,-4.1438,-4.1549,-4.1624,-4.1614,-4.1848,-4.185,-4.1882,-4.1902,-4.1965,-4.2018,-4.2039,0,0,-4.1255,-4.1251,-4.1321,-4.1296,-4.1446,-4.1417,-4.1573,-4.1654,-4.1676,-4.1791,-4.1797,-4.1888,-4.1905,-4.1968,-4.2168,-4.2184,0,0,0,-4.1353,-4.1403,-4.1446,-4.1517,-4.1583,-4.1642,-4.1702,-4.1733,-4.1832,-4.1732,-4.193,-4.1941,-4.1978,-4.2004,-4.2018,-4.2051,-4.1862,-4.1862,-4.1862,-4.1496,-4.1519,-4.1637,-4.168,-4.1749,-4.1812,-4.187,-4.1922,-4.1924,-4.1971,-4.2004,-4.2122,-4.2152,-4.2163,-4.2196,-4.2036,-4.2036,-4.2036,-4.2036,-4.1669,-4.1743,-4.1746,-4.1861,-4.1885,-4.1982,-4.2047,-4.2046,-4.2139,-4.2098,-4.2133,-4.2083,-4.218,-4.2211,-4.204,-4.2039,-4.2039,-4.2038,-4.2038,-4.1763,-4.1802,-4.1839,-4.1946,-4.2026,-4.2067,-4.2157,-4.2177,-4.2195,-4.223,-4.2266,-4.2266,-4.2266,-4.2247,-4.2247,-4.2247,-4.2248,-4.2248,-4.2248,-4.1844,-4.1885,-4.1959,-4.204,-4.2089,-4.2156,-4.2223,-4.2272,-4.2331,-4.2337,-4.2338,-4.2334,-4.2187,-4.2147,-4.2255,-4.2254,-4.2253,-4.2252,-4.2252,-4.2005,-4.1972,-4.2086,-4.2135,-4.2233,-4.2311,-4.2337,-4.2435,-4.2479,-4.2523,-4.2515,-4.2403,-4.2399,-4.2388,-4.2355,-4.251,-4.251,-4.251,-4.251,-4.2082,-4.2084,-4.2204,-4.2283,-4.2362,-4.2397,-4.2525,-4.2579,-4.263,-4.2658,-4.264,-4.26,-4.2588,-4.2591,-4.2576,-4.2545,-4.2745,-4.2745,-4.2745,-4.2182,-4.2192,-4.2296,-4.2346,-4.2425,-4.2492,-4.2614,-4.2703,-4.2754,-4.2755,-4.2681,-4.2671,-4.2607,-4.2585,-4.2579,-4.2555,-4.25,0,0]},{"header":{"parameterUnit":"m.s-1","parameterCategory":1,"la1":30.2992,"la2":30.254,"lo1":-89.0895,"lo2":-89.0443,"dy":0.0025,"dx":0.0025,"nx":19,"ny":19,"refTime":"2026-04-02T21:00:00:Z","depth":0,"parameterNumber":3,"parameterNumberName":"V-component_of_WINDS"},"data":[0,0,0,2.9053,2.9053,2.9085,2.9085,2.9099,2.9099,0,0,0,0,0,0,0,0,0,0,0,2.9026,2.9025,2.9053,2.9053,2.9085,2.9085,2.9099,2.9099,0,0,0,0,0,0,0,0,0,0,0,2.9026,2.9025,2.9025,2.9053,2.9085,2.9085,2.9099,2.9085,0,0,0,0,0,0,0,0,0,0,2.9059,2.9016,2.9026,2.9025,2.9053,2.9085,2.9085,2.9085,2.9086,2.9073,0,2.9055,0,2.9077,2.9098,2.9098,0,0,0,2.9067,2.9014,2.904,2.9025,2.9054,2.9085,2.9074,2.9086,2.9087,2.9074,2.9056,2.9057,2.9078,2.9098,2.9098,2.8979,2.8978,0,0,2.9065,2.9021,2.9039,2.9039,2.9031,2.9073,2.9075,2.9087,2.9064,2.9056,2.9058,2.9078,2.9098,2.9098,2.898,2.8978,0,0,0,2.9051,2.902,2.9045,2.9038,2.9046,2.9074,2.9076,2.9064,2.9076,2.9058,2.9078,2.9098,2.9098,2.8981,2.8979,2.8879,0,0,0,2.9051,2.9012,2.9044,2.9017,2.9045,2.9055,2.9052,2.9075,2.9078,2.9078,2.9098,2.9098,2.8983,2.898,2.8885,2.8838,0,0,0,2.903,2.901,2.9008,2.9015,2.9027,2.9056,2.9069,2.9076,2.9089,2.9098,2.9098,2.8984,2.8981,2.889,2.8846,2.8795,0,0,0,2.8995,2.8916,2.9006,2.8926,2.9026,2.8993,2.9069,2.9046,2.9042,2.9098,2.8982,2.898,2.8891,2.8852,2.88,2.8744,2.8716,0,0,2.8871,2.89,2.8857,2.8938,2.8878,2.8992,2.8918,2.8955,2.8996,2.8983,2.898,2.8883,2.8847,2.8796,2.8578,2.8556,0,0,0,2.8803,2.8771,2.8765,2.876,2.8788,2.8809,2.8862,2.8877,2.8869,2.898,2.8852,2.8832,2.8804,2.8779,2.876,2.874,2.8966,2.8967,2.8967,2.8563,2.8622,2.8556,2.8619,2.8614,2.8673,2.8674,2.8705,2.8763,2.8733,2.8728,2.8589,2.8558,2.8544,2.8522,2.8704,2.8704,2.8703,2.8703,2.8388,2.8353,2.8438,2.8403,2.8467,2.8439,2.8496,2.8539,2.8524,2.8595,2.8574,2.8646,2.8518,2.8502,2.8696,2.8697,2.8698,2.8699,2.8699,2.8236,2.823,2.8251,2.8254,2.825,2.8318,2.8302,2.836,2.8415,2.8394,2.8397,2.8399,2.8409,2.8392,2.8391,2.8391,2.8391,2.839,2.839,2.807,2.8098,2.8076,2.8103,2.8111,2.8128,2.8191,2.82,2.8225,2.827,2.827,2.8333,2.8494,2.8534,2.8383,2.8384,2.8385,2.8385,2.8386,2.7868,2.7925,2.789,2.7898,2.7938,2.7932,2.8009,2.8025,2.8041,2.8032,2.8102,2.8212,2.8244,2.826,2.8293,2.8089,2.8089,2.8089,2.8089,2.774,2.7764,2.7745,2.7754,2.777,2.7838,2.7801,2.7852,2.7913,2.7928,2.7967,2.8016,2.803,2.8055,2.8075,2.8106,2.7859,2.7859,2.7858,2.762,2.765,2.7605,2.7666,2.7703,2.7735,2.7703,2.7712,2.7794,2.785,2.7942,2.7951,2.8032,2.8054,2.8109,2.8139,2.8198,0,0]}]]